Regional Weather Roundup
Issued by NWS

Home | Current Version | Previous Version | Graphics & Text | Print | Product List | Glossary On
Versions: 1 2 3 4 5 6 7 8 9 10 11 12 13 14 15 16 17 18 19 20 21 22 23 24 25 26 27 28 29 30 31 32 33 34 35 36 37 38 39 40 41 42 43 44 45 46 47 48 49 50
000
ASUS43 KDTX 070210
RWRMI
MICHIGAN HOURLY REGIONAL WEATHER ROUNDUP
NATIONAL WEATHER SERVICE DETROIT/PONTIAC MI
ISSUED BY NATIONAL WEATHER SERVICE GRAND RAPIDS MI
1000 PM EDT WED MAY 06 2015

NOTE: "FAIR" INDICATES FEW OR NO CLOUDS BELOW 12,000 FEET WITH NO
SIGNIFICANT WEATHER AND/OR OBSTRUCTION TO VISIBILITY.

MIZ047>049-052>055-059>063-066>070-074>076-081>083-070300-
SOUTHEAST LOWER MICHIGAN

CITY           SKY/WX    TMP DP  RH WIND       PRES   REMARKS
ADRIAN         CLEAR     60  56  86 SE5       30.18R
ALMA           CLEAR     60  57  89 CALM      30.15R
ANN ARBOR      CLEAR     61  58  90 S5        30.17R
BAD AXE        CLEAR     53  43  69 SE3       30.18R
DETROIT CITY   CLEAR     62  56  80 SE3       30.18R
DETROIT        PTCLDY    62  56  80 S7        30.18R
FLINT          CLEAR     64  56  75 SE5       30.16R
GROSSE ILE     CLEAR     54  52  94 S3        30.17R FOG
HILLSDALE      CLEAR     63  62  96 SE8       30.17R FOG
HOWELL         CLEAR     65  59  81 SE3       30.16R

CITY           SKY/WX    TMP DP  RH WIND       PRES   REMARKS
JACKSON        CLEAR     64  59  83 SE7       30.16R
LANSING        CLEAR     66  59  78 S5        30.16R
MASON          CLEAR     62  59  90 SE3       30.16R
MONROE         CLEAR     55  54  94 CALM      30.17R FOG
MT. CLEMENS    CLEAR     58  56  92 S7        30.16R
PONTIAC        PTCLDY    65  56  72 SE3       30.17R
PORT HOPE        N/A     52  42  69 SE8       30.17R
PORT HURON     CLEAR     52  46  82 CALM      30.19R
TRI CITIES     CLEAR     58  51  78 NE7       30.16S
YPSILANTI      CLEAR     64  57  78 S6        30.18R
$$
MIZ043>046-050>051-056>058-064>065-071>073-077>080-070300-
SOUTHWEST LOWER MICHIGAN

CITY           SKY/WX    TMP DP  RH WIND       PRES   REMARKS
BATTLE CREEK   CLEAR     70  61  73 SE9       30.15R
BENTON HARBOR  PTCLDY    67  61  81 CALM      30.09R
BIG RAPIDS     CLEAR     67  57  70 S5        30.13R
COLDWATER      CLEAR     64  59  85 SE6       30.15R HAZE
HOLLAND        PTCLDY    68  60  75 E6        30.11R
GRAND RAPIDS   PTCLDY    66  59  78 E9        30.12R
KALAMAZOO      MOCLDY    70  61  73 SE6       30.13R
MARSHALL       CLEAR     64  60  85 SE6       30.15R
MOUNT PLEASANT CLEAR     62  52  70 E7        30.15R
MUSKEGON       MOCLDY    68  59  73 SE6       30.11R
STURGIS        CLEAR     66  63  88 SE8       30.13R HAZE
$$
MIZ016>042-070300-
NORTHERN LOWER MICHIGAN

CITY           SKY/WX    TMP DP  RH WIND       PRES   REMARKS
ALPENA         PTCLDY    49  42  77 SE3       30.17R
BEAVER ISLAND  CLEAR     52  40  65 E6        30.13R
BELLAIRE       CLEAR     59  52  77 CALM      30.12R
CADILLAC       CLEAR     66  55  67 SE6       30.13R
CHARLEVOIX     CLEAR     58  40  51 CALM      30.14S
GAYLORD        PTCLDY    62  50  64 CALM      30.14R
HOUGHTON LAKE  CLEAR     64  50  60 SE8       30.15S
MANISTEE       PTCLDY    55  46  71 CALM      30.11S
OSCODA         PTCLDY    49  42  77 SE3       30.18R
PELLSTON       CLEAR     58  43  57 NE5       30.13R
TRAVERSE CITY  MOCLDY    55  37  50 CALM      30.10S
LUDINGTON      CLEAR     61  56  83 CALM      30.11R
$$
MIZ007>008-015-070300-
EASTERN UPPER MICHIGAN

CITY           SKY/WX    TMP DP  RH WIND       PRES   REMARKS
KINROSS        CLEAR     55  43  62 SE8       30.15S
MACKINAC ISLAN CLEAR     44  37  78 E10       30.14R
NEWBERRY       CLEAR     57  37  46 SE5       30.13R
S. S. MARIE    CLEAR     56  41  57 E6        30.15S
$$
MIZ004>006-011>014-085-070300-
CENTRAL UPPER MICHIGAN

CITY           SKY/WX    TMP DP  RH WIND       PRES   REMARKS
MANISTIQUE     CLEAR     52  40  63 SE3       30.12R
ESCANABA       PTCLDY    50  39  66 CALM      30.11R
MENOMINEE      MOCLDY    52  45  76 SE5       30.10S
$$
MIZ001>003-009>011-084-070300-
WESTERN UPPER MICHIGAN

CITY           SKY/WX    TMP DP  RH WIND       PRES   REMARKS
IRON MOUNTAIN  PTCLDY    59  50  72 SE6       30.08R
HOUGHTON       MOCLDY    52  32  46 E9        30.03S
COPPER HARBOR    N/A     58  32  37 SW10G18   30.03R
IRONWOOD       PTCLDY    66  57  72 SE7       29.96S
$$

ABBREVIATIONS USED IN REMARKS
   TC - TEMPERATURE IN CELSIUS
  WCI - WIND CHILL INDEX
   HX - HEAT INDEX
  VSB - VISIBILITY



USA.gov is the U.S. government's official web portal to all federal, state and local government web resources and services.